TimeAKDT,TemperatureF,Dew PointF,Humidity,Sea Level PressureIn,VisibilityMPH,Wind Direction,Wind SpeedMPH,Gust SpeedMPH,PrecipitationIn,Events,Conditions,WindDirDegrees,DateUTC
12:16 AM,46.4,46.4,100,29.54,10.0,NW,3.5,-,N/A,,Overcast,320,2013-09-08 08:16:00
12:36 AM,46.4,46.4,100,29.54,10.0,North,3.5,-,N/A,,Overcast,360,2013-09-08 08:36:00
12:56 AM,46.4,46.4,100,29.53,10.0,NNW,6.9,-,N/A,,Overcast,340,2013-09-08 08:56:00
1:16 AM,46.4,46.4,100,29.53,10.0,North,4.6,-,N/A,,Overcast,360,2013-09-08 09:16:00
1:36 AM,46.4,46.4,100,29.52,10.0,North,8.1,-,N/A,,Overcast,10,2013-09-08 09:36:00
1:56 AM,46.4,46.4,100,29.51,10.0,North,6.9,-,N/A,,Overcast,350,2013-09-08 09:56:00
2:16 AM,46.4,44.6,93,29.51,10.0,North,10.4,-,N/A,,Overcast,10,2013-09-08 10:16:00
2:36 AM,46.4,44.6,93,29.49,10.0,North,10.4,18.4,N/A,,Overcast,360,2013-09-08 10:36:00
2:56 AM,46.4,44.6,93,29.49,10.0,North,10.4,18.4,N/A,,Overcast,360,2013-09-08 10:56:00
3:16 AM,46.4,44.6,93,29.48,10.0,North,11.5,16.1,N/A,,Overcast,10,2013-09-08 11:16:00
3:36 AM,46.4,44.6,93,29.47,10.0,North,12.7,18.4,N/A,,Overcast,10,2013-09-08 11:36:00
3:56 AM,46.4,44.6,93,29.47,10.0,North,8.1,19.6,N/A,,Overcast,360,2013-09-08 11:56:00
4:16 AM,46.4,46.4,100,29.46,10.0,North,10.4,17.3,N/A,,Overcast,360,2013-09-08 12:16:00
4:36 AM,44.6,44.6,100,29.46,10.0,North,12.7,18.4,N/A,,Overcast,350,2013-09-08 12:36:00
4:56 AM,46.4,44.6,93,29.46,10.0,North,11.5,18.4,N/A,,Overcast,360,2013-09-08 12:56:00
5:16 AM,46.4,44.6,93,29.46,10.0,North,9.2,-,N/A,,Overcast,350,2013-09-08 13:16:00
5:36 AM,46.4,44.6,93,29.46,10.0,North,10.4,-,N/A,,Overcast,350,2013-09-08 13:36:00
5:56 AM,44.6,44.6,100,29.47,10.0,North,8.1,-,N/A,,Overcast,350,2013-09-08 13:56:00
6:16 AM,44.6,44.6,100,29.47,10.0,North,10.4,16.1,N/A,,Overcast,10,2013-09-08 14:16:00
6:36 AM,44.6,44.6,100,29.47,10.0,North,6.9,-,N/A,,Overcast,360,2013-09-08 14:36:00
6:56 AM,44.6,44.6,100,29.47,10.0,North,6.9,-,N/A,,Overcast,350,2013-09-08 14:56:00
7:16 AM,44.6,44.6,100,29.47,10.0,North,4.6,-,N/A,,Overcast,350,2013-09-08 15:16:00
7:36 AM,44.6,44.6,100,29.47,10.0,North,5.8,-,N/A,,Overcast,360,2013-09-08 15:36:00
7:56 AM,44.6,44.6,100,29.48,10.0,North,8.1,-,N/A,,Overcast,360,2013-09-08 15:56:00
8:16 AM,44.6,44.6,100,29.48,10.0,North,6.9,-,N/A,,Overcast,10,2013-09-08 16:16:00
8:36 AM,44.6,44.6,100,29.48,10.0,North,8.1,-,N/A,,Overcast,360,2013-09-08 16:36:00
8:56 AM,44.6,44.6,100,29.49,10.0,North,8.1,-,N/A,,Overcast,10,2013-09-08 16:56:00
9:16 AM,44.6,44.6,100,29.49,10.0,North,8.1,-,N/A,,Overcast,10,2013-09-08 17:16:00
9:36 AM,44.6,44.6,100,29.50,10.0,North,5.8,-,N/A,,Overcast,360,2013-09-08 17:36:00
9:56 AM,44.6,44.6,100,29.51,10.0,NNE,6.9,-,N/A,,Overcast,20,2013-09-08 17:56:00
10:16 AM,44.6,44.6,100,29.52,10.0,North,5.8,-,N/A,,Overcast,360,2013-09-08 18:16:00
10:36 AM,44.6,44.6,100,29.53,9.0,NNE,6.9,-,N/A,,Overcast,20,2013-09-08 18:36:00
10:56 AM,44.6,44.6,100,29.54,10.0,North,4.6,-,N/A,,Overcast,10,2013-09-08 18:56:00
11:16 AM,44.6,44.6,100,29.54,7.0,NNE,4.6,-,N/A,,Overcast,20,2013-09-08 19:16:00
11:36 AM,44.6,44.6,100,29.54,8.0,NNE,8.1,-,N/A,,Overcast,20,2013-09-08 19:36:00
11:56 AM,46.4,46.4,100,29.55,10.0,Calm,Calm,-,N/A,,Overcast,0,2013-09-08 19:56:00
12:16 PM,46.4,46.4,100,29.56,10.0,Calm,Calm,-,N/A,,Overcast,0,2013-09-08 20:16:00
12:36 PM,46.4,46.4,100,29.57,10.0,Calm,Calm,-,N/A,,Overcast,0,2013-09-08 20:36:00
12:56 PM,46.4,46.4,100,29.58,10.0,NNE,5.8,-,N/A,,Overcast,20,2013-09-08 20:56:00
1:16 PM,46.4,46.4,100,29.59,10.0,NNE,3.5,-,N/A,,Overcast,20,2013-09-08 21:16:00
1:36 PM,48.2,48.2,100,29.60,10.0,NNE,6.9,-,N/A,,Overcast,20,2013-09-08 21:36:00
1:56 PM,48.2,48.2,100,29.61,10.0,NNE,3.5,-,N/A,,Overcast,30,2013-09-08 21:56:00
2:16 PM,48.2,48.2,100,29.62,10.0,NNE,3.5,-,N/A,,Overcast,20,2013-09-08 22:16:00
2:36 PM,48.2,48.2,100,29.63,10.0,Calm,Calm,-,N/A,,Overcast,0,2013-09-08 22:36:00
2:56 PM,48.2,46.4,93,29.63,10.0,Calm,Calm,-,N/A,,Overcast,0,2013-09-08 22:56:00
3:16 PM,48.2,48.2,100,29.64,10.0,Calm,Calm,-,N/A,,Overcast,0,2013-09-08 23:16:00
3:36 PM,48.2,46.4,93,29.65,10.0,Calm,Calm,-,N/A,,Overcast,0,2013-09-08 23:36:00
3:56 PM,48.2,48.2,100,29.66,10.0,Calm,Calm,-,N/A,,Overcast,0,2013-09-08 23:56:00
4:16 PM,48.2,48.2,100,29.66,10.0,Calm,Calm,-,N/A,,Overcast,0,2013-09-09 00:16:00
4:36 PM,50.0,50.0,100,29.66,10.0,Calm,Calm,-,N/A,,Overcast,0,2013-09-09 00:36:00
4:56 PM,50.0,50.0,100,29.67,10.0,Calm,Calm,-,N/A,,Overcast,0,2013-09-09 00:56:00
5:16 PM,50.0,50.0,100,29.67,10.0,Calm,Calm,-,N/A,,Overcast,0,2013-09-09 01:16:00
5:36 PM,50.0,48.2,94,29.68,10.0,Calm,Calm,-,N/A,,Overcast,0,2013-09-09 01:36:00
5:56 PM,50.0,48.2,94,29.68,10.0,Calm,Calm,-,N/A,,Overcast,0,2013-09-09 01:56:00
6:16 PM,51.8,48.2,88,29.69,10.0,Calm,Calm,-,N/A,,Overcast,0,2013-09-09 02:16:00
6:36 PM,50.0,48.2,94,29.70,10.0,South,4.6,-,N/A,,Overcast,190,2013-09-09 02:36:00
6:56 PM,50.0,48.2,94,29.70,10.0,SSW,3.5,-,N/A,,Overcast,200,2013-09-09 02:56:00
7:16 PM,50.0,48.2,94,29.71,10.0,South,3.5,-,N/A,,Overcast,170,2013-09-09 03:16:00
7:36 PM,48.2,46.4,93,29.71,10.0,South,3.5,-,N/A,,Overcast,180,2013-09-09 03:36:00
7:56 PM,48.2,46.4,93,29.72,10.0,Calm,Calm,-,N/A,,Overcast,0,2013-09-09 03:56:00
8:16 PM,48.2,46.4,93,29.73,10.0,SSE,4.6,-,N/A,,Overcast,160,2013-09-09 04:16:00
8:36 PM,48.2,46.4,93,29.73,10.0,SE,5.8,-,N/A,,Overcast,140,2013-09-09 04:36:00
8:56 PM,48.2,46.4,93,29.74,10.0,SSE,5.8,-,N/A,,Overcast,160,2013-09-09 04:56:00
9:16 PM,48.2,44.6,87,29.75,10.0,SSE,5.8,-,N/A,,Overcast,160,2013-09-09 05:16:00
9:36 PM,48.2,44.6,87,29.76,10.0,South,3.5,-,N/A,,Overcast,170,2013-09-09 05:36:00
9:56 PM,48.2,44.6,87,29.76,10.0,SSE,5.8,-,N/A,,Overcast,160,2013-09-09 05:56:00
10:16 PM,48.2,44.6,87,29.76,10.0,South,6.9,-,N/A,,Overcast,170,2013-09-09 06:16:00
10:36 PM,48.2,44.6,87,29.77,10.0,SSE,4.6,-,N/A,,Mostly Cloudy,160,2013-09-09 06:36:00
10:56 PM,48.2,44.6,87,29.77,10.0,SSE,4.6,-,N/A,,Overcast,160,2013-09-09 06:56:00
11:16 PM,48.2,42.8,82,29.78,10.0,South,5.8,-,N/A,,Mostly Cloudy,170,2013-09-09 07:16:00
11:36 PM,48.2,42.8,82,29.78,10.0,South,4.6,-,N/A,,Partly Cloudy,180,2013-09-09 07:36:00
11:56 PM,48.2,42.8,82,29.79,10.0,South,5.8,-,N/A,,Clear,170,2013-09-09 07:56:00